Location: Hastings Shoals
(50.8333°N, 0.5833°E)
Time: 16:51:30
(UTC+00:00)

Daily predictions for brighter satellites

Satellite Brightness Start Highest point End
(mag) Time Altitude Azimuth Time Altitude Azimuth Time Altitude Azimuth
Okean 3 3.8 17:56:22 10° NNW 18:00:30 70° W 18:04:36 10° S
GEOS 3 Rocket 3.9 17:55:30 10° NE 18:00:44 51° SE 18:05:52 10° SSW
Cosmos 1821 Rocket 4.1 17:55:13 10° N 18:01:25 57° ENE 18:07:41 10° SSE
NOSS 0 Rocket 4.4 17:56:07 10° S 18:01:51 41° ESE 18:07:39 10° NE
Cosmos 1726 2.6 18:00:12 10° SSW 18:03:33 60° WNW 18:06:56 10° N
Cosmos 1269 Rocket 4.5 18:00:05 10° S 18:04:57 39° ESE 18:09:51 10° NE
Cosmos 614 Rocket 4.2 18:00:50 10° S 18:05:37 45° ESE 18:10:27 10° NE
BREEZE-M R/B 4.2 18:02:48 10° W 18:06:59 63° SSW 18:15:40 10° ESE
NOSS 2-3 (E) 4.0 18:03:14 10° WSW 18:07:01 59° NW 18:11:29 10° NE
ISS -1.0 18:04:55 10° W 18:07:12 17° SW 18:09:28 10° S
Cosmos 1869 Rocket 4.1 18:03:17 10° SSE 18:07:16 35° E 18:11:14 10° NNE
COSMO-SKYMED 1 2.6 18:03:09 10° NNE 18:07:30 65° ESE 18:11:49 10° S
ADEOS 3.6 18:02:43 10° SSE 18:07:56 85° ENE 18:13:11 10° NNW
Okean 1-7 3.4 18:05:52 10° NNW 18:10:12 71° W 18:14:32 10° S
SeaSat 1 4.1 18:05:51 10° NNE 18:10:17 34° NW 18:14:42 10° WSW
SL-16 R/B 4.3 18:05:45 10° W 18:10:23 25° NW 18:15:03 10° NNE
Helios 1A 4.0 18:08:13 10° N 18:12:12 51° WNW 18:16:10 10° SW
Cosmos 1992 Rocket 4.0 18:08:37 10° NNW 18:13:53 86° ENE 18:19:08 10° SSE
CZ-4B R/B 2.5 18:11:30 10° SSE 18:14:58 68° ENE 18:18:31 10° N
Cosmos 2366 rocket 4.4 18:09:04 10° NNW 18:15:12 70° W 18:21:17 10° S
Cosmos 1867 4.2 18:12:15 10° S 18:17:06 34° ESE 18:21:59 10° NE
CZ-4C R/B 3.9 18:12:35 10° NW 18:17:36 27° N 18:23:36 10° ENE
NOSS 3-1 (C) 3.1 18:14:04 10° SSW 18:19:07 72° SE 18:25:14 10° NE
USA 267 3.8 18:14:31 10° ENE 18:20:51 53° N 18:27:11 10° WNW
Cosmos 1975 3.6 18:19:06 10° SSW 18:22:54 54° WNW 18:26:44 10° N
Cosmos 405 3.7 18:21:58 10° NNE 18:23:56 19° ENE 18:24:55 16° E
CZ-4B DEB 4.2 18:20:04 10° SSE 18:25:28 69° ENE 18:30:54 10° NNW
Okean O Rocket 2.7 18:23:15 10° ESE 18:26:54 26° ENE 18:30:34 10° N
Cosmos 1980 4.0 18:21:35 10° S 18:26:55 45° ESE 18:32:17 10° NE
Lacrosse 5 2.4 18:22:00 10° WNW 18:26:59 50° NNE 18:31:15 14° E
Cosmos 2322 Rocket 4.2 18:23:36 10° W 18:28:16 26° NW 18:32:57 10° NNE
Cosmos 1900 4.3 18:23:23 10° SSW 18:28:18 74° SE 18:33:19 10° NE
Nadezhda 3 Rocket 4.1 18:23:05 10° SSE 18:29:14 54° E 18:35:24 10° NNE
Cosmos 1766 3.2 18:27:43 10° S 18:31:24 55° E 18:35:06 10° NNE
CZ-4B R/B 3.4 18:30:01 10° SE 18:35:04 47° ENE 18:40:12 10° N
Cosmos 2278 Rocket 2.6 18:30:36 10° NNW 18:36:15 70° WSW 18:41:52 10° SSE
IGS 5A 3.3 18:34:10 10° SSE 18:38:16 79° ENE 18:42:24 10° N
Landsat 7 4.0 18:34:58 10° SE 18:39:29 49° ENE 18:44:02 10° N
Resurs 1-3 4.2 18:36:44 11° SE 18:40:34 35° ENE 18:44:32 10° N
Tiangong 0.1 18:41:11 10° SW 18:43:06 15° S 18:44:24 12° SSE
CZ-4C R/B 4.1 18:43:08 10° NE 18:45:56 23° E 18:46:30 22° ESE
Cosmos 1733 Rocket 3.6 18:42:53 10° SSE 18:46:48 34° E 18:50:44 10° NNE
Okean 2 4.3 18:43:50 10° NNW 18:47:44 49° W 18:51:37 10° S
PAYLOAD B 4.2 18:43:24 10° SSE 18:48:57 80° ENE 18:54:30 10° NNW
CENTAUR R/B 3.8 18:42:59 10° NW 18:50:07 42° NNE 18:56:22 17° E
Cosmos 2360 Rocket 4.3 18:46:46 10° W 18:51:22 25° NW 18:56:00 10° NNE
ATLAS 3B R/B 3.0 18:44:56 10° SW 18:51:58 81° NW 18:59:33 10° NE
PLATFORM 4.2 18:49:29 10° NW 18:52:30 54° NE 18:53:39 31° ESE
BREEZE-M DEB (TANK) 3.6 18:50:25 10° W 18:52:43 34° SSW 18:55:47 15° SE
ADEOS Rocket 3.9 18:49:08 13° SE 18:55:10 40° ENE 19:01:34 10° N
Cosmos 1656 Rocket 4.5 18:50:20 10° NNW 18:55:13 32° NE 18:57:50 22° E
Feng Yun 1-1 Rocket 4.4 18:49:41 10° SE 18:55:16 54° ENE 19:00:45 10° N
Resurs 01 Rocket 2.8 18:55:17 22° E 18:56:27 25° ENE 19:00:04 10° N
MOS 1-B 4.3 18:55:05 10° SSE 19:00:49 71° ENE 19:06:36 10° NNW
Cosmos 2369 Rocket 3.0 18:58:43 10° NNW 19:03:49 34° NE 19:06:11 25° E
Cosmos 2237 Rocket 2.1 18:59:01 10° SSW 19:04:42 79° ESE 19:10:26 10° NNE
SL-4 R/B 3.2 19:01:45 10° SSW 19:05:18 25° SE 19:05:35 25° SE
Cosmos 1378 Rocket 3.7 19:01:24 10° N 19:05:36 47° ENE 19:07:46 25° SE
DMSP B5D1-3 4.4 19:02:05 10° NNE 19:07:13 80° ESE 19:12:20 10° SSW
BREEZE-M DEB (TANK) 4.0 19:04:50 10° SW 19:09:45 32° SSE 19:10:16 30° SE
Okean-O 3.5 19:09:28 28° E 19:10:08 29° ENE 19:13:58 10° N
Cosmos 1943 Rocket 2.3 19:06:15 10° NNW 19:11:56 76° WSW 19:17:22 11° SSE
CZ-4 R/B 1.2 19:08:56 10° SSE 19:12:45 81° WSW 19:16:35 10° NNW
Cosmos 1470 2.6 19:10:02 10° S 19:13:52 77° E 19:17:46 10° NNE
SL-16 R/B 2.7 19:10:06 10° S 19:15:08 34° ESE 19:20:13 10° NE
Cosmos 1400 Rocket 4.3 19:12:34 10° NNE 19:15:08 22° NE 19:15:08 22° NE
USA 186 1.9 19:17:23 47° NE 19:17:23 47° NE 19:20:02 10° N
USA 229 DEB 3.6 19:11:28 10° SSW 19:17:24 51° ESE 19:23:55 10° NE
USA 229 3.7 19:11:33 10° SSW 19:17:30 51° ESE 19:24:01 10° NE
USA 276 4.0 19:17:02 10° SSW 19:17:49 16° SSW 19:17:49 16° SSW
Cosmos 407 Rocket 3.8 19:16:47 10° S 19:21:41 42° ESE 19:26:40 10° NE
Cosmos 1934 Rocket 4.0 19:16:41 10° N 19:23:02 83° W 19:29:15 10° S
Cosmos 1605 Rocket 3.9 19:17:31 10° N 19:23:36 65° ENE 19:28:13 18° SSE
SJ-6B 2.9 19:20:28 15° S 19:23:45 78° WSW 19:27:44 10° NNW
Meteor 1-22 Rocket 4.0 19:20:30 10° S 19:25:41 61° E 19:30:59 10° NNE
Cosmos 1674 Rocket 3.4 19:22:51 10° N 19:27:18 70° ENE 19:29:04 35° SSE
Cosmos 1339 Rocket 4.4 19:21:06 10° S 19:27:23 82° E 19:33:48 10° NNE
YAOGAN 1 4.4 19:23:50 10° SSW 19:27:40 31° W 19:31:31 10° NNW
COSMOS 2428 4.2 19:24:28 10° WSW 19:29:42 37° NW 19:34:58 10° NNE
Cosmos 1535 Rocket 4.4 19:23:36 10° N 19:29:45 86° E 19:35:55 10° S
Cosmos 2297 3.7 19:24:24 10° NNW 19:30:09 67° ENE 19:32:29 36° SE
NOSS 3-1 (A) 3.3 19:28:27 10° SW 19:33:38 76° NW 19:40:00 10° NE
CSL-04 Debris 4.1 19:31:53 22° SSE 19:35:30 84° ENE 19:40:57 10° NNW
Cosmos 2219 Rocket 4.4 19:31:20 10° W 19:35:45 23° NW 19:40:12 10° NNE
BREEZE-M DEB (TANK) 4.2 19:33:29 10° W 19:37:24 31° SW 19:37:37 31° SSW
Cosmos 389 Rocket 2.4 19:34:24 10° NNW 19:37:17 64° W 19:37:17 64° W
Cosmos 468 Rocket 4.4 19:33:49 10° NNW 19:38:49 43° ENE 19:39:27 41° ENE
SPOT 1/Viking Rocket 3.4 19:39:26 31° SSE 19:41:59 85° ENE 19:47:10 10° NNW
Cosmos 1763 Rocket 3.5 19:38:57 10° NNW 19:44:03 59° ENE 19:44:53 52° ESE
Cosmos 540 Rocket 3.8 19:39:51 10° NNW 19:44:45 44° ENE 19:45:04 43° ENE
Cosmos 967 Rocket 4.5 19:40:58 10° NW 19:47:26 74° NE 19:49:37 44° ESE
Cosmos 1356 Rocket 4.3 19:44:57 10° N 19:47:55 36° NNE 19:47:55 36° NNE
Meteor 1-12 Rocket 4.3 19:43:37 10° SSW 19:49:29 86° WNW 19:55:30 10° NNE
Cosmos 1908 3.2 19:50:06 69° N 19:50:06 69° N 19:53:27 10° N
IRS-1C Rocket 4.2 19:50:31 51° E 19:50:59 53° ENE 19:56:06 10° N
CSL-04 Rocket 3.6 19:48:42 30° S 19:51:24 82° WSW 19:56:47 10° NNW
Cosmos 1023 Rocket 4.4 19:46:25 10° SSW 19:51:35 86° WNW 19:56:50 10° NNE
Cosmos 1140 Rocket 3.4 19:46:29 10° SSW 19:51:39 90° NNW 19:56:53 10° NNE
Meteor 1-24 Rocket 3.8 19:47:07 10° NNW 19:52:29 69° W 19:55:50 23° S
MOS 1 4.4 19:51:50 49° E 19:52:34 53° ENE 19:58:04 10° N
Meteor 2-10 Rocket 4.1 19:55:36 45° ENE 19:55:36 45° ENE 20:00:30 10° NNE
Terra 3.7 20:00:14 18° NNE 20:00:14 18° NNE 20:02:12 10° N
Cosmos 2221 Rocket 4.2 19:54:22 10° NNW 19:58:48 56° W 20:00:49 30° SSW
SPOT 5 4.2 20:01:17 23° NNE 20:01:17 23° NNE 20:03:30 10° N
Cosmos 1727 Rocket 4.0 19:59:15 52° ESE 19:59:50 54° E 20:05:55 10° NNE
Cosmos 1867 4.2 19:55:08 10° WSW 20:00:29 56° NW 20:05:54 10° NE
Meteor 2-5 Rocket 4.2 19:55:43 10° NNW 20:01:16 57° W 20:05:24 17° S
BREEZE M DEB (TANK) 3.4 20:00:14 10° WSW 20:01:40 33° SW 20:01:40 33° SW
Okean O Rocket 2.6 20:00:33 23° SSW 20:02:59 45° W 20:07:17 10° NNW
USA 267 3.5 20:01:05 40° ENE 20:03:25 62° NNE 20:09:52 10° WNW
Cosmos 1703 4.0 20:03:36 10° NNW 20:06:23 46° NNW 20:06:23 46° NNW
CZ-4C R/B 3.4 20:01:31 10° NW 20:07:44 43° NNE 20:09:52 35° ENE
Lacrosse 5 1.9 20:05:06 10° WNW 20:10:12 68° SW 20:10:27 67° SSW
Ariane Rocket 4.1 20:15:01 32° NNE 20:15:01 32° NNE 20:18:26 10° N
Cosmos 1153 Rocket 4.4 20:09:04 10° N 20:15:19 89° WSW 20:17:05 51° S
Cosmos 2173 Rocket 3.9 20:11:54 10° N 20:17:53 62° ENE 20:17:53 62° ENE
Cosmos 2251 Rocket 3.8 20:13:59 10° SW 20:19:14 66° WNW 20:24:30 10° NNE
IRIDIUM 104 4.4 20:14:56 10° N 20:20:10 75° W 20:20:53 64° SSW
Cosmos 2263 4.1 20:24:39 10° NNW 20:30:18 87° NNW 20:30:18 87° NNW
Resurs 01 Rocket 2.5 20:32:49 46° W 20:32:49 46° W 20:37:00 10° NNW
Cosmos 841 Rocket 4.2 20:27:58 10° NNW 20:31:46 44° NNE 20:31:46 44° NNE
ERS-1 Rocket 4.2 20:35:48 33° NNE 20:35:48 33° NNE 20:38:49 10° N
Cosmos 1656 Rocket 4.0 20:33:45 10° NW 20:39:06 56° WSW 20:39:12 56° WSW
Cosmos 1459 Rocket 3.9 20:32:51 10° N 20:39:10 82° ENE 20:39:10 82° ENE
ADEOS Rocket 3.9 20:36:05 26° SSW 20:40:27 57° W 20:47:25 10° NNW
Cosmos 2100 Rocket 3.8 20:34:19 10° N 20:40:28 89° NNW 20:40:28 89° NNW
USA 238 DEB 4.4 20:34:07 10° NW 20:40:54 45° NNE 20:42:00 43° NE
USA 238 4.4 20:34:13 10° NW 20:41:01 45° NNE 20:42:06 42° NE
Cosmos 1025 Rocket 4.3 20:37:04 10° NNW 20:39:53 38° NNW 20:39:53 38° NNW
CENTAUR R/B 3.1 20:33:46 10° NW 20:41:51 87° NE 20:43:31 64° SE
ATLAS 3B R/B 4.1 20:37:09 10° W 20:43:47 37° NNW 20:50:47 10° NE
Okean-O 4.0 20:46:59 36° W 20:46:59 36° W 20:50:36 10° NNW
Cosmos 2369 Rocket 2.7 20:42:39 10° NW 20:47:59 53° WSW 20:47:59 53° WSW
Gbstr 26 Del rocket 4.3 20:41:05 10° W 20:49:12 84° N 20:50:10 72° ENE
Cosmos 2237 Rocket 4.2 20:44:38 10° W 20:49:24 26° NW 20:54:12 10° NNE
IRS-1A Rocket 4.5 20:50:41 65° NW 20:50:41 65° NW 20:55:30 10° NNW
SL-16 R/B 3.0 20:53:35 10° SW 20:59:05 50° NW 21:04:39 10° NNE
USA 229 DEB 4.3 21:02:12 10° WSW 21:08:24 51° NNW 21:15:15 10° NE
USA 229 4.3 21:02:16 10° WSW 21:08:28 52° NNW 21:15:21 10° NE
Cosmos 1802 Rocket 4.3 21:03:15 10° NNW 21:08:41 65° NNW 21:08:41 65° NNW
NOSS 3-2 (A) 3.9 21:03:47 10° NW 21:11:05 82° SW 21:11:05 82° SW
Cosmos 2016 Rocket 4.5 21:15:40 10° NNW 21:20:46 58° NNW 21:20:46 58° NNW
Cosmos 1980 Rocket 4.4 21:23:17 10° N 21:26:19 16° NNE 21:26:19 16° NNE
Terra 4.1 21:38:58 21° NNW 21:38:58 21° NNW 21:40:37 10° NNW
USA 267 4.0 21:48:26 47° WNW 21:48:26 47° WNW 21:52:58 10° WNW
NOSS 3-2 (C) 4.3 21:44:55 10° NW 21:50:41 62° NW 21:50:41 62° NW
CZ-4C R/B 3.4 21:49:51 10° NW 21:54:59 55° NW 21:54:59 55° NW
CENTAUR R/B 4.4 22:24:56 10° NW 22:30:40 31° W 22:30:40 31° W
ATLAS 3B R/B 4.3 22:30:04 10° NW 22:36:37 31° N 22:38:39 28° NE
